Regional Weather Roundup
Issued by NWS

Home | Current Version | Previous Version | Graphics & Text | Print | Product List | Glossary On
Versions: 1 2 3 4 5 6 7 8 9 10 11 12 13 14 15 16 17 18 19 20 21 22 23 24 25 26 27 28 29 30 31 32 33 34 35 36 37 38 39 40 41 42 43 44 45 46 47 48 49 50
000
ASUS45 KBOI 291910
RWRID

IDAHO REGIONAL WEATHER ROUNDUP
NATIONAL WEATHER SERVICE BOISE ID
100 PM MDT SAT AUG 29 2015

NOTE: "FAIR" INDICATES FEW OR NO CLOUDS BELOW 12000 FEET
WITH NO SIGNIFICANT WEATHER AND/OR OBSTRUCTIONS TO VISIBILITY

IDZ012-014-292000-
SOUTHWEST IDAHO


CITY           SKY/WX    TMP DP  RH WIND       PRES   REMARKS
BOISE          CLOUDY    87  40  19 SE7       29.86F
CALDWELL       CLOUDY    84  52  32 E12       29.84F
MOUNTAIN HOME  CLOUDY    87  39  18 E5        29.88F
$$

IDZ016-017-292000-
SOUTHCENTRAL IDAHO


CITY           SKY/WX    TMP DP  RH WIND       PRES   REMARKS
JEROME         CLOUDY    85  46  25 W9        29.97F
TWIN FALLS     CLOUDY    90  43  19 NW16      29.96F
$$

IDZ019>023-292000-
SOUTHEAST IDAHO


CITY           SKY/WX    TMP DP  RH WIND       PRES   REMARKS
IDAHO FALLS    CLOUDY    86  45  23 E9        30.03F
POCATELLO      SUNNY     93  41  16 SW20G29   30.00F
REXBURG        CLOUDY    79  48  33 S7        30.06F
$$

IDZ006-010-011-018-031-032-292000-
CENTRAL IDAHO MOUNTAINS


CITY           SKY/WX    TMP DP  RH WIND       PRES   REMARKS
MCCALL         PTSUNNY   75  37  25 S12       29.97F
HAILEY         PTSUNNY   81  50  34 SE10      30.05F
STANLEY          N/A     75  37  25 SE12G21   30.09S
SALMON         MOSUNNY   81  50  34 NW6       29.83F
CHALLIS        PTSUNNY   82  48  30 E7        29.93F
$$

IDZ002-004-006-007-026-292000-
NORTHERN IDAHO


CITY           SKY/WX    TMP DP  RH WIND       PRES   REMARKS
LEWISTON       CLOUDY    78  48  34 NW23G31   29.73R
LOWELL           N/A     67  54  63 CALM      29.73F
COEUR D`ALENE  CLOUDY    79  45  29 W30G44    29.72R
MULLAN PASS    CLOUDY    68  37  32 S9G20     29.93S HAZE
$$


USA.gov is the U.S. government's official web portal to all federal, state and local government web resources and services.